Regional Weather Roundup
Issued by NWS

Home | Current Version | Previous Version | Graphics & Text | Print | Product List | Glossary On
Versions: 1 2 3 4 5 6 7 8 9 10 11 12 13 14 15 16 17 18 19 20 21 22 23 24 25 26 27 28 29 30 31 32 33 34 35 36 37 38 39 40 41 42 43 44 45 46 47 48 49 50
000
ASUS43 KLMK 051302
RWRKY
KENTUCKY REGIONAL WEATHER ROUNDUP
NATIONAL WEATHER SERVICE LOUISVILLE KY
900 AM EDT SUN JUL 05 2015

NOTE "FAIR" INDICATES FEW OR NO CLOUDS BELOW 12,000 FEET
WITH NO SIGNIFICANT WEATHER AND/OR OBSTRUCTIONS TO VISIBILITY.

KYZ001>023-026-027-061>063-070>075-051400-
WESTERN AND SOUTH CENTRAL KENTUCKY

CITY           SKY/WX    TMP DP  RH WIND       PRES   REMARKS
PADUCAH        PTSUNNY   69  67  93 W3        30.07R FOG
HENDERSON      PTSUNNY   72  66  83 NE3       30.05S
OWENSBORO      CLOUDY    74  71  90 CALM      30.06F FOG
HOPKINSVILLE   CLOUDY    72  70  93 SW5       30.08R
BOWLING GREEN  CLOUDY    72  69  90 S7        30.08R FOG
GLASGOW        NOT AVBL
$$

KYZ024-025-028>034-038-045-046-053-051400-
NORTH CENTRAL KENTUCKY

CITY           SKY/WX    TMP DP  RH WIND       PRES   REMARKS
LOUISVILLE/SDF CLOUDY    72  67  84 N5        30.07S HAZE
LOUISVILLE/LOU CLOUDY    71  67  87 VRB3      30.08S FOG
FORT KNOX      CLOUDY    69  67  93 N6        30.06R FOG
$$

KYZ035>037-039>044-047>052-055>060-089>105-051400-
NORTHEAST KENTUCKY

CITY           SKY/WX    TMP DP  RH WIND       PRES   REMARKS
LEXINGTON      CLOUDY    70  61  73 NE7       30.10R
COVINGTON      CLOUDY    70  59  68 E7        30.10F
FRANKFORT      CLOUDY    70  64  81 NE5       30.08S
$$

KYZ054-064>069-076>088-106>120-051400-
SOUTHEAST KENTUCKY

CITY           SKY/WX    TMP DP  RH WIND       PRES   REMARKS
JACKSON        LGT RAIN  68  66  93 CALM      30.11S
LONDON         HVY RAIN  68  64  87 N6        30.10R FOG
SOMERSET       NOT AVBL
MIDDLESBORO    NOT AVBL
MONTICELLO     PTSUNNY   69  69 100 CALM      30.11R
$$




USA.gov is the U.S. government's official web portal to all federal, state and local government web resources and services.